Regional Weather Roundup
Issued by NWS

Home | Current Version | Previous Version | Text Only | Print | Product List | Glossary Off
Versions: 1 2 3 4 5 6 7 8 9 10 11 12 13 14 15 16 17 18 19 20 21 22 23 24 25 26 27 28 29 30 31 32 33 34 35 36 37 38 39 40 41 42 43 44 45 46 47 48 49 50

000
ASUS45 KABQ 291610
RWRNM
NEW MEXICO REGIONAL WEATHER ROUNDUP
NATIONAL WEATHER SERVICE ALBUQUERQUE NM
1000 AM MDT WED JUL 29 2015

NOTE: "FAIR" MEANS FEW OR NO CLOUDS BELOW 12,000 FEET AGL WITH NO
       SIGNIFICANT WEATHER OR OBSTRUCTIONS TO VISION.

      THIS PRODUCT IS RELEASED AS TWO VERSIONS.  ONE VERSION NEAR
      THE TOP OF THE HOUR CONTAINING PRELIMINARY DATA FROM ALBUQUERQUE
      AND OTHER STATIONS.  A FINAL VERSION WITH ADDITIONAL DATA IS
      ISSUED ABOUT 10 MINUTES AFTER THE HOUR.

NMZ501-503-504-510>518-291700-
NORTHWEST PLATEAU/NORTHCENTRAL MOUNTAINS

CITY           SKY/WX    TMP DP  RH WIND       PRES   REMARKS
FARMINGTON     SUNNY     76  48  37 E6        30.27R
LOS ALAMOS     CLOUDY    65  53  66 SE6       30.43S
SANTA FE       CLOUDY    70  51  51 CALM      30.37R
TAOS           PTSUNNY   70  45  40 CALM      30.44S
ANGEL FIRE     FAIR      60  55  82 CALM      30.51S

$$
NMZ402-403-502-505>509-291700-
WESTCENTRAL MOUNTAINS/SOUTHWEST MOUNTAINS

CITY           SKY/WX    TMP DP  RH WIND       PRES   REMARKS
GALLUP         CLOUDY    73  51  46 S5        30.35R
GRANTS         RAIN      68  57  68 SE7       30.38S
SILVER CITY      N/A     73  55  53 CALM      30.28S

$$
NMZ407-409-411-412-291700-
SOUTHERN DESERTS

CITY           SKY/WX    TMP DP  RH WIND       PRES   REMARKS
LORDSBURG      FAIR      73  63  68 S7        30.19S
DEMING         CLOUDY    74  61  63 E6        30.21S
LAS CRUCES     CLOUDY    75  60  58 CALM      30.23S
ALAMOGORDO     MOSUNNY   77  63  61 N7        30.22F
T OR C         CLOUDY    72  63  73 SW3       30.25S

$$
NMZ519>523-291700-
CENTRAL VALLEYS/CENTRAL HIGHLANDS

CITY           SKY/WX    TMP DP  RH WIND       PRES   REMARKS
ALBUQUERQUE    CLOUDY    74  57  55 N5        30.32R
DOUBLE EAGLE   CLOUDY    70  57  64 SW3       30.35R
MORIARTY ARPT    N/A     71  54  55 CALM      30.38R
CLINES CORNERS PTSUNNY   70  53  54 E9        30.41R
BELEN          PTSUNNY   75  57  53 NE3       30.29F
SOCORRO        PTSUNNY   77  55  46 CALM      30.26S

$$
NMZ524>526-539-540-291700-
SOUTHCENTRAL MOUNTAINS

CITY           SKY/WX    TMP DP  RH WIND       PRES   REMARKS
RUIDOSO          N/A    N/A N/A N/A MISG        N/A

$$
NMZ527>531-291700-
NORTHEAST HIGHLANDS/NORTHEAST PLAINS

CITY           SKY/WX    TMP DP  RH WIND       PRES   REMARKS
LAS VEGAS      CLOUDY    66  56  70 NE5       30.42R
RATON          MOSUNNY   73  52  47 E10       30.38R
CLAYTON        CLOUDY    69  58  67 E16       30.36R

$$
NMZ532>537-291700-
EASTCENTRAL PLAINS

CITY           SKY/WX    TMP DP  RH WIND       PRES   REMARKS
TUCUMCARI      PTSUNNY   74  64  71 E12       30.27R
CANNON AFB     SUNNY     77  66  68 E10       30.26R
CLOVIS AIRPORT MOSUNNY   75  64  69 E13       30.28R

$$
NMZ028-029-538-291700-
SOUTHEAST PLAINS

CITY           SKY/WX    TMP DP  RH WIND       PRES   REMARKS
ROSWELL        MOSUNNY   81  62  52 VRB3      30.21S
ARTESIA        MOSUNNY   82  63  51 N10       30.21R
CARLSBAD       SUNNY     85  63  47 N9        30.17R
HOBBS          SUNNY     82  61  47 NE9       30.20S


$$


USA.gov is the U.S. government's official web portal to all federal, state and local government web resources and services.